Weather Roundup
Issued by NWS

Home | Current Version | Previous Version | Graphics & Text | Print | Product List | Glossary Off
Versions: 1 2 3 4 5 6 7 8 9 10 11 12 13 14 15 16 17 18 19 20 21 22 23 24 25 26 27 28 29 30 31 32 33 34 35 36 37 38 39 40 41 42 43 44 45 46 47 48 49 50

000
NZUS93 KARX 232110
HRRWXR

CURRENT HOURLY OBSERVATIONS ACROSS
MUCH OF THE UPPER MISSISSIPPI VALLEY
NATIONAL WEATHER SERVICE LA CROSSE WI
300 PM CST MON JAN 23 2017


...SOUTHEAST MINNESOTA...


CITY           SKY/WX    TMP DP  RH WIND       PRES   REMARKS
ROCHESTER      CLOUDY    33  30  88 NW10      29.79F WCI  25
ROCHESTER/MAYO CLOUDY    35  32  90 W10       29.80F WCI  27
WINONA           N/A     36  32  87 W6        29.82S WCI  31
AUSTIN         CLOUDY    32  27  80 N5        29.80F WCI  27
ALBERT LEA     CLOUDY    34  28  80 W3        29.81R
DODGE CENTER   MOSUNNY   32  28  86 CALM      29.80S
PRESTON        CLOUDY    32  30  91 NW6       29.80S WCI  26
OWATONNA       CLOUDY    32  28  86 NW5       29.81S WCI  27
FARIBAULT      NOT AVBL
$$

...ELSEWHERE IN MINNESOTA...


CITY           SKY/WX    TMP DP  RH WIND       PRES   REMARKS
MINNEAPOLIS    CLOUDY    35  28  75 CALM      29.81F
INTNL FALLS    CLOUDY    33  28  81 SW7       29.75R WCI  27
DULUTH         LGT SNOW  35  33  92 W6        29.76R FOG     WCI  30
RED WING       CLOUDY    36  30  80 W6        29.81F WCI  31
REDWOOD FALLS  CLOUDY    33  27  78 W6        29.82S WCI  28
MANKATO        CLOUDY    33  28  81 NW8       29.83R WCI  26
WORTHINGTON    CLOUDY    31  28  89 NW3       29.81
FAIRMONT       CLOUDY    32  30  92 N6        29.83S WCI  26
$$

...SOUTHWEST WISCONSIN...


CITY           SKY/WX    TMP DP  RH WIND       PRES   REMARKS
LA CROSSE      CLOUDY    39  33  79 NW3       29.81S
PRAIRIE DU CHI CLOUDY    38  32  81 W5        29.81S WCI  34
BOSCOBEL       CLOUDY    40  31  70 W6        29.81S
LONE ROCK      CLOUDY    40  33  76 W8        29.80R WCI  34
PLATTEVILLE    CLOUDY    38  37  95 W7        29.79S WCI  33
FORT MC COY    CLOUDY    35  34  96 W6        29.81S WCI  30
CAMP DOUGLAS   CLOUDY    37  36  93 W8        29.79R WCI  31
MAUSTON-NEW LI CLOUDY    38  35  89 W6        29.78R WCI  33
VIROQUA        CLOUDY    34  34 100 W6        29.79R WCI  29
WIS DELLS      CLOUDY    36  35  96 W5        29.77S FOG     WCI  32
$$

...ELSEWHERE IN WISCONSIN...


CITY           SKY/WX    TMP DP  RH WIND       PRES   REMARKS
MILWAUKEE      CLOUDY    43  36  76 NW6       29.74R
MADISON        CLOUDY    38  35  89 NW5       29.78R WCI  34
GREEN BAY      CLOUDY    40  36  86 NW3       29.74F
EAU CLAIRE     CLOUDY    34  33  96 W8        29.80R FOG     WCI  27
BLACK RVR FLS  CLOUDY    36  36 100 W7        29.80R WCI  30
MEDFORD        CLOUDY    34  33  99 W5        29.75R WCI  29
WAUSAU         CLOUDY    35  33  92 W5        29.74S WCI  31
WIS RAPIDS     CLOUDY    36  35  96 N3        29.78R
MARSHFIELD     CLOUDY    34  33  96 NW5       29.75S FOG     WCI  30
RICE LAKE      CLOUDY    35  33  94 W7        29.81R WCI  29
$$

...NORTHEAST IOWA...


CITY           SKY/WX    TMP DP  RH WIND       PRES   REMARKS
WATERLOO       CLOUDY    34  28  79 W9        29.83R WCI  27
DUBUQUE        CLOUDY    37  34  89 NW7       29.79S WCI  32
DECORAH        MIX PCPN  34  30  86 NW6       29.79F WCI  29
MASON CITY     CLOUDY    32  28  85 NW7       29.83S WCI  26
CHARLES CITY   CLOUDY    34  32  93 NW7       29.82R WCI  28
OELWEIN        CLOUDY    34  32  93 W9        29.81F WCI  26
$$

...ELSEWHERE IN IOWA...


CITY           SKY/WX    TMP DP  RH WIND       PRES   REMARKS
DES MOINES     CLOUDY    35  28  75 NW5       29.84F WCI  31
IOWA CITY      CLOUDY    38  31  76 W10       29.84S WCI  31
FORT DODGE     CLOUDY    34  27  75 CALM      29.83S
MARSHALLTOWN   CLOUDY    32  30  92 NW6       29.82F WCI  26
CEDAR RAPIDS   CLOUDY    33  30  88 W10       29.82R WCI  25
$$

...NORTHERN ILLINOIS...


CITY           SKY/WX    TMP DP  RH WIND       PRES   REMARKS
CHICAGO-OHARE  CLOUDY    41  36  82 NW9       29.74R
CHICAGO-MIDWAY CLOUDY    43  34  70 NW7       29.74S
MOLINE         CLOUDY    40  34  79 W8        29.80S WCI  34
ROCKFORD       CLOUDY    42  35  76 NW9       29.79R
PEORIA         CLOUDY    42  35  76 NW6       29.79S
$$

NOTE: "FAIR" INDICATES FEW OR NO CLOUDS BELOW 12,000 FEET WITH NO
SIGNIFICANT WEATHER AND/OR OBSTRUCTIONS TO VISIBILITY. WIND
SPEEDS ARE IN MILES-PER-HOUR.




USA.gov is the U.S. government's official web portal to all federal, state and local government web resources and services.